Starlink 30855

operational
NORAD ID: 58222 Int'l Des: 2023-170 Owner: SPXS Country: US Constellation: starlink
LEOCIRCULAR

Über Starlink 30855

Beschreibung wird geladen...

Live-Position

3D-Globus wird geladen...

Nächste Überflüge

Höhenverlauf

Altitude vs Time

uPlot chart will show altitude changes over time

Zweizeiliger Elementsatz

1 58222U 23170S 25258.17530816 -.00001385 00000-0 -87507-4 0 9995
2 58222 43.0011 69.9315 0001127 268.8135 91.2579 15.02531660103878
Epoch: 15. Sept. 2025 • Age: 10 hours

Aktueller Status

Höhe 562.8 km
Geschwindigkeit 7.59 km/s
Subsatellitenpunkt 42.07°N, 34.89°W
Startdatum 4. Nov. 2023
Alter 1.8 years
Typ internet

Technische Details

Klassifizierung Payload
Masse 730.00 kg
Trockenmasse 700.00 kg
Gesamtmasse 730.00 kg
Länge 0.30 m
Durchmesser 4.10 m
Spannweite 29.00 m
Form Box + pan
Hersteller SPXS
Bus-Typ Starlink V2M
Phasenstatus In Orbit
Besitzer/Staat SPXS/US

Große Konstellationen

Loading constellations...